Date,TemperatureHighF,TemperatureAvgF,TemperatureLowF,DewpointHighF,DewpointAvgF,DewpointLowF,HumidityHigh,HumidityAvg,HumidityLow,PressureMaxIn,PressureMinIn,WindSpeedMaxMPH,WindSpeedAvgMPH,GustSpeedMaxMPH,PrecipitationSumIn
2013-2-1,56.7,53.8,51.9,52.6,49.4,46.6,94,85,72,30.18,29.83,13,6,20,0.00
2013-2-2,57.1,53.8,46.1,52.6,49.6,38.7,95,86,71,29.83,29.34,22,14,43,0.15
2013-2-3,50.6,46.7,42.7,42.8,36.2,25.3,88,68,48,29.93,29.44,21,9,37,0.24
2013-2-4,51.0,45.7,40.5,35.9,26.2,17.9,66,48,27,30.12,29.93,10,5,18,0.00
2013-2-5,51.5,48.7,44.4,48.4,38.9,32.3,91,69,56,30.12,29.81,13,5,25,0.04
2013-2-6,53.4,50.6,47.0,47.5,40.9,29.8,87,70,50,29.81,29.51,20,8,38,0.00
2013-2-7,47.6,44.3,40.7,39.5,35.9,31.7,87,73,57,29.56,29.49,13,4,25,0.48
2013-2-8,47.0,42.4,39.7,36.2,30.5,25.6,84,63,50,29.72,29.53,8,3,17,0.04
2013-2-9,45.4,40.0,36.2,30.2,25.4,22.6,78,56,42,29.85,29.70,10,3,16,0.00
2013-2-10,44.4,39.8,36.7,26.5,23.1,16.9,64,52,34,29.95,29.83,10,4,17,0.00
2013-2-11,52.7,45.2,36.6,44.3,34.2,18.3,87,66,41,29.96,29.63,29,12,52,0.23
2013-2-12,50.0,45.0,42.0,45.5,39.1,35.0,90,80,68,29.67,29.58,17,7,38,0.85
2013-2-13,52.8,46.5,42.2,40.3,36.8,31.7,82,69,47,29.81,29.64,10,4,20,0.08
2013-2-14,53.2,47.1,41.7,39.6,34.2,31.9,83,62,46,29.97,29.81,10,5,17,0.01
2013-2-15,51.5,46.9,43.0,40.9,36.1,31.1,86,66,53,29.99,29.95,10,3,20,0.05
2013-2-16,52.4,47.3,43.4,41.2,36.2,33.2,89,66,51,30.04,29.94,7,3,15,0.04
2013-2-17,51.6,47.3,44.2,39.0,33.7,29.3,72,59,46,30.05,29.97,12,4,20,0.00
2013-2-18,49.2,45.8,42.0,37.9,35.7,32.4,83,68,53,29.98,29.92,12,3,22,0.04
2013-2-19,50.9,45.2,39.8,36.0,31.3,26.9,79,59,40,29.97,29.92,10,4,16,0.00
2013-2-20,50.1,47.0,44.5,37.4,33.8,31.5,74,61,51,29.99,29.90,9,3,18,0.00
2013-2-21,49.8,46.3,43.2,38.6,34.7,29.5,73,64,51,29.90,29.68,8,3,13,0.01
2013-2-22,52.4,48.3,44.2,49.8,43.2,34.5,93,83,61,29.69,29.49,18,6,44,0.82
2013-2-23,56.2,51.6,48.4,49.0,45.1,38.8,91,79,66,29.67,29.50,25,12,45,0.22
2013-2-24,52.7,46.2,41.4,46.4,35.1,26.2,84,66,44,29.95,29.66,21,8,35,0.04
2013-2-25,47.0,43.7,40.1,38.0,35.2,29.9,85,72,58,30.02,29.94,9,2,13,0.19
2013-2-26,49.3,46.6,43.7,38.5,35.1,31.9,75,64,55,30.10,29.99,6,2,12,0.07
2013-2-27,53.1,47.8,42.7,40.0,36.3,32.0,83,65,46,30.17,30.08,10,3,14,0.00
2013-2-28,52.6,49.0,45.0,40.1,36.1,32.8,70,61,48,30.22,30.12,9,3,13,0.00